• In Latvia
  • List of Countries
  • For 7 days
  • Water Temperature
  • Satellite Maps
  • Weather Map
  • Weather Widgets
  • user-avatar
    Login

    Hourly Weather Boghiceni

    Today, 22 October, Monday

    Time Temperature Precipitation Wind Pressure Humidity
    00:00 +10°C° 0 mm 3 mps 754 mmHg 72%
    01:00 +9°C° 0 mm 3 mps 754 mmHg 74%
    02:00 +9°C° 0 mm 3 mps 754 mmHg 77%
    03:00 +8°C° 0 mm 3 mps 754 mmHg 78%
    04:00 +8°C° 0 mm 3 mps 754 mmHg 80%
    05:00 +7°C° 0 mm 3 mps 754 mmHg 81%
    06:00 +8°C° 0 mm 3 mps 754 mmHg 78%
    07:00 +8°C° 0 mm 3 mps 754 mmHg 75%
    08:00 +7°C° 0 mm 4 mps 754 mmHg 71%
    09:00 +10°C° 0 mm 4 mps 754 mmHg 64%
    10:00 +12°C° 0 mm 4 mps 754 mmHg 57%
    11:00 +13°C° 0 mm 4 mps 754 mmHg 50%
    12:00 +14°C° 0 mm 4 mps 754 mmHg 47%
    13:00 +16°C° 0 mm 3 mps 753 mmHg 44%
    14:00 +16°C° 0 mm 3 mps 753 mmHg 42%
    15:00 +14°C° 0 mm 3 mps 753 mmHg 44%
    16:00 +14°C° 0 mm 2 mps 752 mmHg 46%
    17:00 +13°C° 0 mm 2 mps 752 mmHg 48%
    18:00 +13°C° 0 mm 2 mps 752 mmHg 50%
    19:00 +12°C° 0 mm 2 mps 752 mmHg 52%
    20:00 +11°C° 0 mm 1 mps 752 mmHg 53%
    21:00 +10°C° 0 mm 1 mps 752 mmHg 54%
    22:00 +10°C° 0 mm 1 mps 752 mmHg 55%
    23:00 +10°C° 0 mm 1 mps 752 mmHg 56%

    Tomorrow, 23 October, Tuesday

    Time Temperature Precipitation Wind Pressure Humidity
    00:00 +9°C° 0 mm 1 mps 752 mmHg 57%
    01:00 +9°C° 0 mm 1 mps 752 mmHg 58%
    02:00 +9°C° 0 mm 1 mps 752 mmHg 59%
    03:00 +9°C° 0 mm 1 mps 751 mmHg 60%
    04:00 +8°C° 0 mm 1 mps 751 mmHg 61%
    05:00 +8°C° 0 mm 1 mps 751 mmHg 62%
    06:00 +9°C° 0 mm 1 mps 751 mmHg 60%
    07:00 +9°C° 0 mm 1 mps 751 mmHg 59%
    08:00 +10°C° 0 mm 1 mps 751 mmHg 57%
    09:00 +11°C° 0 mm 1 mps 751 mmHg 53%
    10:00 +13°C° 0 mm 2 mps 750 mmHg 49%
    11:00 +15°C° 0 mm 2 mps 750 mmHg 45%
    12:00 +14°C° 0 mm 3 mps 749 mmHg 44%
    13:00 +16°C° 0 mm 3 mps 749 mmHg 44%
    14:00 +17°C° 0 mm 3 mps 748 mmHg 43%
    15:00 +16°C° 0 mm 2 mps 748 mmHg 47%
    16:00 +15°C° 0 mm 2 mps 747 mmHg 50%
    17:00 +14°C° 0 mm 1 mps 746 mmHg 53%
    18:00 +13°C° 0 mm 1 mps 746 mmHg 55%
    19:00 +13°C° 0 mm 1 mps 745 mmHg 58%
    20:00 +12°C° 0 mm 1 mps 745 mmHg 60%
    21:00 +11°C° 0 mm 3 mps 744 mmHg 61%
    22:00 +11°C° 0 mm 4 mps 743 mmHg 62%
    23:00 +12°C° 0 mm 5 mps 742 mmHg 63%

    Day after tomorrow, 24 October, Wednesday

    Time Temperature Precipitation Wind Pressure Humidity
    00:00 +11°C° 0.2 mm 6 mps 742 mmHg 62%
    01:00 +11°C° 0.2 mm 7 mps 741 mmHg 61%
    02:00 +11°C° 0.2 mm 7 mps 740 mmHg 60%
    03:00 +10°C° 0.1 mm 7 mps 739 mmHg 59%
    04:00 +10°C° 0.1 mm 6 mps 738 mmHg 59%
    05:00 +9°C° 0.1 mm 6 mps 738 mmHg 58%
    06:00 +10°C° 0 mm 6 mps 737 mmHg 56%
    07:00 +10°C° 0 mm 7 mps 736 mmHg 53%
    08:00 +11°C° 0 mm 7 mps 735 mmHg 51%
    09:00 +12°C° 0.1 mm 8 mps 734 mmHg 49%
    10:00 +13°C° 0.1 mm 8 mps 733 mmHg 46%
    11:00 +15°C° 0.1 mm 9 mps 733 mmHg 43%
    12:00 +13°C° 1.1 mm 9 mps 732 mmHg 49%
    13:00 +11°C° 1.1 mm 8 mps 732 mmHg 54%
    14:00 +10°C° 1.1 mm 8 mps 732 mmHg 60%
    15:00 +9°C° 0.1 mm 8 mps 732 mmHg 53%
    16:00 +7°C° 0.1 mm 9 mps 733 mmHg 46%
    17:00 +6°C° 0.1 mm 9 mps 734 mmHg 39%
    18:00 +6°C° 0.1 mm 9 mps 734 mmHg 45%
    19:00 +5°C° 0.1 mm 10 mps 735 mmHg 50%
    20:00 +3°C° 0.1 mm 10 mps 735 mmHg 55%
    21:00 +3°C° 0 mm 9 mps 735 mmHg 55%
    22:00 +3°C° 0 mm 9 mps 736 mmHg 54%
    23:00 +3°C° 0 mm 9 mps 736 mmHg 53%

    25 October, Thursday

    Time Temperature Precipitation Wind Pressure Humidity
    00:00 +3°C° 0 mm 9 mps 736 mmHg 54%
    01:00 +3°C° 0 mm 9 mps 736 mmHg 54%
    02:00 +3°C° 0 mm 10 mps 736 mmHg 55%
    03:00 +3°C° 0.1 mm 10 mps 737 mmHg 56%
    04:00 +3°C° 0.1 mm 10 mps 737 mmHg 57%
    05:00 +3°C° 0.1 mm 11 mps 737 mmHg 59%
    06:00 +3°C° 0.2 mm 11 mps 738 mmHg 60%
    07:00 +4°C° 0.2 mm 11 mps 739 mmHg 61%
    08:00 +4°C° 0.2 mm 11 mps 739 mmHg 62%
    09:00 +4°C° 0 mm 11 mps 740 mmHg 59%
    10:00 +6°C° 0 mm 11 mps 741 mmHg 57%
    11:00 +6°C° 0 mm 11 mps 741 mmHg 55%
    12:00 +6°C° 0 mm 11 mps 742 mmHg 54%
    13:00 +7°C° 0 mm 11 mps 742 mmHg 52%
    14:00 +7°C° 0 mm 11 mps 742 mmHg 51%
    15:00 +6°C° 0 mm 10 mps 743 mmHg 52%
    16:00 +6°C° 0 mm 9 mps 744 mmHg 53%
    17:00 +6°C° 0 mm 8 mps 744 mmHg 54%
    18:00 +5°C° 0 mm 7 mps 745 mmHg 55%
    19:00 +5°C° 0 mm 5 mps 745 mmHg 57%
    20:00 +4°C° 0 mm 4 mps 745 mmHg 59%
    21:00 +4°C° 0 mm 4 mps 746 mmHg 60%
    22:00 +4°C° 0 mm 3 mps 746 mmHg 61%
    23:00 +3°C° 0 mm 3 mps 746 mmHg 62%

    26 October, Friday

    Time Temperature Precipitation Wind Pressure Humidity
    00:00 +4°C° 0.1 mm 3 mps 746 mmHg 59%
    01:00 +4°C° 0.1 mm 4 mps 746 mmHg 57%
    02:00 +5°C° 0.1 mm 4 mps 746 mmHg 54%
    03:00 +5°C° 0.2 mm 4 mps 746 mmHg 54%
    04:00 +5°C° 0.2 mm 4 mps 746 mmHg 54%
    05:00 +5°C° 0.2 mm 4 mps 746 mmHg 54%
    06:00 +6°C° 0 mm 4 mps 746 mmHg 53%
    07:00 +6°C° 0 mm 4 mps 746 mmHg 53%
    08:00 +7°C° 0 mm 4 mps 746 mmHg 53%
    09:00 +9°C° 0 mm 5 mps 747 mmHg 50%
    10:00 +11°C° 0 mm 6 mps 747 mmHg 47%
    11:00 +14°C° 0 mm 6 mps 747 mmHg 45%
    12:00 +14°C° 0 mm 6 mps 747 mmHg 43%
    13:00 +15°C° 0 mm 5 mps 747 mmHg 42%
    14:00 +16°C° 0 mm 5 mps 747 mmHg 41%
    15:00 +15°C° 0 mm 4 mps 747 mmHg 44%
    16:00 +14°C° 0 mm 2 mps 747 mmHg 48%
    17:00 +13°C° 0 mm 1 mps 747 mmHg 51%
    18:00 +13°C° 0 mm 1 mps 748 mmHg 53%
    19:00 +12°C° 0 mm 1 mps 748 mmHg 55%
    20:00 +10°C° 0 mm 2 mps 748 mmHg 57%
    21:00 +10°C° 0 mm 2 mps 748 mmHg 59%
    22:00 +9°C° 0 mm 2 mps 748 mmHg 61%
    23:00 +9°C° 0 mm 2 mps 748 mmHg 62%

    27 October, Saturday

    Time Temperature Precipitation Wind Pressure Humidity
    00:00 +9°C° 0 mm 2 mps 748 mmHg 64%
    01:00 +8°C° 0 mm 2 mps 748 mmHg 65%
    02:00 +8°C° 0 mm 2 mps 748 mmHg 67%
    03:00 +8°C° 0 mm 2 mps 748 mmHg 67%
    04:00 +7°C° 0 mm 3 mps 748 mmHg 67%
    05:00 +7°C° 0 mm 3 mps 748 mmHg 67%
    06:00 +8°C° 0 mm 3 mps 747 mmHg 65%
    07:00 +9°C° 0 mm 3 mps 747 mmHg 63%
    08:00 +9°C° 0 mm 3 mps 747 mmHg 60%
    09:00 +11°C° 0 mm 4 mps 747 mmHg 55%
    10:00 +13°C° 0 mm 4 mps 747 mmHg 49%
    11:00 +16°C° 0 mm 5 mps 747 mmHg 44%
    12:00 +16°C° 0 mm 5 mps 747 mmHg 42%
    13:00 +17°C° 0 mm 5 mps 746 mmHg 39%
    14:00 +19°C° 0 mm 5 mps 746 mmHg 37%
    15:00 +19°C° 0 mm 5 mps 746 mmHg 37%
    16:00 +18°C° 0 mm 4 mps 746 mmHg 38%
    17:00 +17°C° 0 mm 4 mps 745 mmHg 38%
    18:00 +17°C° 0 mm 4 mps 745 mmHg 37%
    19:00 +15°C° 0 mm 4 mps 745 mmHg 37%
    20:00 +15°C° 0 mm 4 mps 745 mmHg 37%
    21:00 +14°C° 0 mm 4 mps 745 mmHg 38%
    22:00 +14°C° 0 mm 5 mps 745 mmHg 40%
    23:00 +13°C° 0 mm 5 mps 745 mmHg 41%

    28 October, Sunday

    Time Temperature Precipitation Wind Pressure Humidity
    00:00 +13°C° 0 mm 4 mps 745 mmHg 43%
    01:00 +12°C° 0 mm 4 mps 745 mmHg 44%
    02:00 +12°C° 0 mm 4 mps 745 mmHg 45%
    03:00 +12°C° 0 mm 4 mps 745 mmHg 47%
    04:00 +11°C° 0 mm 3 mps 745 mmHg 49%
    05:00 +11°C° 0 mm 3 mps 745 mmHg 51%
    06:00 +11°C° 0 mm 3 mps 745 mmHg 51%
    07:00 +11°C° 0 mm 3 mps 745 mmHg 52%
    08:00 +12°C° 0 mm 3 mps 746 mmHg 53%
    09:00 +14°C° 0 mm 4 mps 746 mmHg 47%
    10:00 +17°C° 0 mm 4 mps 746 mmHg 41%
    11:00 +19°C° 0 mm 5 mps 746 mmHg 35%
    12:00 +20°C° 0 mm 5 mps 746 mmHg 33%
    13:00 +22°C° 0 mm 5 mps 745 mmHg 31%
    14:00 +23°C° 0 mm 6 mps 745 mmHg 29%
    15:00 +22°C° 0 mm 5 mps 745 mmHg 32%
    16:00 +21°C° 0 mm 5 mps 745 mmHg 35%
    17:00 +19°C° 0 mm 4 mps 745 mmHg 38%
    18:00 +19°C° 0 mm 4 mps 745 mmHg 40%
    19:00 +17°C° 0 mm 5 mps 745 mmHg 43%
    20:00 +17°C° 0 mm 5 mps 746 mmHg 45%
    21:00 +16°C° 0 mm 5 mps 746 mmHg 48%
    22:00 +16°C° 0 mm 5 mps 746 mmHg 50%
    23:00 +15°C° 0 mm 4 mps 746 mmHg 53%
    Show more